This is the latest recevied weather packets stored in our database for station/object ED1ZAI-14. If no packets are shown the sender has not sent any weather packets the latest 10 day(s).
| Time | Temp. | Humidity | Pressure | Rain* | Wind** | Luminosity | Snow |
|---|---|---|---|---|---|---|---|
| 1777700154 | 6.11° C | 100% | 1041.2 hPa | - | - | - | - |
| 1777698345 | 6.11° C | 100% | 1041.3 hPa | - | - | - | - |
| 1777696545 | 6.11° C | 100% | 1041.4 hPa | - | - | - | - |
| 1777694745 | 6.11° C | 100% | 1041.3 hPa | - | - | - | - |
| 1777692945 | 6.11° C | 100% | 1041.7 hPa | - | - | - | - |
| 1777691145 | 6.11° C | 100% | 1041.7 hPa | - | - | - | - |
| 1777689345 | 6.11° C | 100% | 1041.7 hPa | - | - | - | - |
| 1777687545 | 5.56° C | 100% | 1041.7 hPa | - | - | - | - |
| 1777685745 | 6.11° C | 100% | 1042 hPa | - | - | - | - |
| 1777683947 | 5.56° C | 100% | 1041.9 hPa | - | - | - | - |
| 1777682146 | 5.56° C | 100% | 1042.4 hPa | - | - | - | - |
| 1777680346 | 6.11° C | 100% | 1042.7 hPa | - | - | - | - |
| 1777678546 | 6.11° C | 100% | 1043.1 hPa | - | - | - | - |
| 1777676746 | 6.11° C | 100% | 1043.1 hPa | - | - | - | - |
| 1777674946 | 6.11° C | 100% | 1043 hPa | - | - | - | - |
| 1777673145 | 5.56° C | 100% | 1043.2 hPa | - | - | - | - |
| 1777671345 | 6.11° C | 100% | 1043.4 hPa | - | - | - | - |
| 1777669545 | 6.67° C | 100% | 1043.3 hPa | - | - | - | - |
| 1777667745 | 6.67° C | 100% | 1043.6 hPa | - | - | - | - |
| 1777665945 | 6.67° C | 100% | 1043.3 hPa | - | - | - | - |
| 1777662352 | 6.11° C | 100% | 1042.9 hPa | - | - | - | - |
| 1777660545 | 6.67° C | 100% | 1042.5 hPa | - | - | - | - |
| 1777658747 | 7.78° C | 100% | 1042.1 hPa | - | - | - | - |
| 1777657633 | 8.89° C | 100% | 1042.2 hPa | - | - | - | - |
| 1777655835 | 8.33° C | 100% | 1042.2 hPa | - | - | - | - |
* Rain since midnight (hover to see other rain measurements)
** Current wind speed in m/s (hover to see current wind gust speed)